SCP
-0 -0 -0 -0 -0 -0 -0 -0 -0 -0 0 -0 0 0 0 0 0 0 0 0 0 -0 0 0 0 0 0 0 0 0 0 0 0 0 0 0 0 0 0 0 0 0 0 0 0
0 -0 -0 0 -0 0 0 -0 -0 -0 0 -0 0 0 0 0 0 0 0 0 0 0 0 0 0 0 0 0 0 0 0 0 0 0 0 0 0 0 0 0 0 0 0 0 0
0 0 0 0 0 0 0 0 0 0 0 0 0 0 0 0 0 0 0 0 0 0 0 0 0 0 0 0 0 0 0 0 0 0 0 0 0 0 0 0 0 0 0 0 0
0 0 0 0 0 0 0 0 0 0 0 0 0 0 0 0 0 0 0 0 0 0 0 0 0 0 0 0 0 0 0 0 0 0 0 0 0 0 0 0 0 0 0 0 0
0 0 0 0 0 0 0 0 0 0 0 0 0 0 0 0 0 0 -0 0 0 0 0 0 0 0 0 0 0 0 0 0 0 0 0 0 0 0 0 0 0 0 0 0 0
0 0 0 0 0 0 0 0 0 0 0 0 0 0 0 0 0 0 0 0 0 0 0 0 0 0 -0 0 0 0 0 0 0 0 0 0 0 0 0 0 0 0 0 0 0
0 0 0 0 0 0 0 0 0 0 0 0 0 0 0 0 0 0 0 0 0 0 0 0 0 0 0 0 0 0 0 0 0 0 0 0 0 0 0 0 0 0 0 0 0
0 0 0 0 0 0 0 0 0 0 0 0 0 0 0 0 0 0 0 0 0 0 0 0 0 -0 -0 0 0 0 0 0 0 0 0 0 0 0 -0 0 0 0 0 0 0
0 0 0 0 0 0 0 0 0 0 0 0 0 0 0 0 0 0 0 0 0 0 0 0 -0 0 -0 0 0 0 0 0 0 0 0 0 0 0 0 0 0 0 0 0 0
0 0 0 0 0 0 0 0 0 0 0 0 0 0 0 0 0 0 0 0 0 0 0 -0 -0 -0 -0 -0 -0 -0 -0 0 0 -0 0 0 0 0 0 0 0 0 0 0 0
0 0 0 0 0 0 0 0 0 0 0 0 0 0 0 0 0 0 0 0 0 0 0 0 0 0 0 0 0 0 -0 -0 0 0 0 0 0 0 0 0 0 0 0 0 0
0 0 0 0 0 0 0 0 0 0 0 0 0 0 0 0 0 0 0 0 0 0 0 0 0 0 0 0 0 0 0 0 -0 0 0 0 0 0 0 0 0 0 0 0 0
0 0 0 0 0 0 -0 0 0 0 0 0 0 0 0 0 0 0 0 0 0 0 0 0 0 0 0 0 0 0 0 0 0 0 0 0 0 0 0 0 0 0 0 0 0
0 0 0 0 0 0 0 0 0 0 0 0 0 0 0 0 0 0 0 0 0 0 0 0 0 0 0 0 0 0 0 0 0 0 0 0 0 0 0 0 0 0 0 0 0
0 0 0 0 0 0 0 0 0 0 0 0 0 0 0 0 0 0 0 0 0 0 0 0 0 0 -0 0 0 0 -0 0 0 0 0 0 0 0 0 0 0 0 0 0 0
0 0 0 0 0 0 0 0 0 0 0 0 0 0 0 0 0 0 0 0 0 0 0 0 0 -0 0 -0 0 0 0 0 0 0 0 0 0 0 0 0 0 0 0 0 0
0 0 0 0 0 0 0 0 0 0 0 0 0 0 0 0 0 0 0 0 0 0 0 0 0 0 0 0 0 0 0 0 0 0 0 0 0 0 0 0 0 0 0 0 0
-0 0 0 0 0 0 0 0 0 0 0 0 0 0 0 0 0 0 0 0 0 0 0 0 0 0 0 0 0 0 0 0 0 0 0 0 0 0 0 0 0 0 0 0 0
0 0 0 0 0 0 0 0 0 0 0 0 0 0 0 0 0 0 0 0 0 0 0 0 0 0 0 0 0 0 0 0 0 0 0 0 0 0 0 0 0 0 0 0 0
0 0 0 0 0 0 0 0 0 0 0 0 0 0 0 0 0 0 0 0 0 0 0 0 0 0 0 0 0 0 0 0 0 0 0 0 0 0 0 0 0 0 0 0 0
0 0 0 0 0 0 0 0 0 0 0 0 0 0 0 0 0 0 0 0 0 0 0 0 0 0 0 0 0 0 0 0 0 0 0 0 0 0 0 0 0 0 0 0 0
0 0 0 0 0 0 0 0 0 0 0 0 0 0 0 0 0 0 0 0 0 0 0 0 0 0 0 0 0 0 0 0 0 0 0 0 0 0 0 0 0 0 0 0 0
0 0 0 0 0 0 0 0 0 0 0 0 0 0 0 0 0 0 0 0 0 0 0 0 0 0 0 0 0 0 0 0 0 0 0 0 0 0 0 0 0 0 0 0 0
0 0 0 0 0 0 0 0 0 0 0 0 0 0 0 0 0 0 0 0 0 0 0 0 0 0 0 0 0 0 0 0 0 0 0 0 0 0 0 0 0 0 0 0 0
0 0 0 0 0 0 0 0 0 0 0 0 0 0 0 0 0 0 0 0 0 0 0 0 0 0 0 0 0 0 0 0 0 0 0 0 0 0 0 0 0 0 0 0 0
0 0 0 0 0 0 0 0 0 0 0 0 0 0 0 0 0 0 0 0 0 0 0 0 0 0 0 0 0 0 0 0 0 0 0 0 0 0 0 0 0 0 0 0 0
0 0 0 0 0 0 0 0 0 0 0 0 0 0 0 0 0 0 0 0 0 0 0 0 0 0 0 0 0 0 0 0 0 0 0 0 0 0 0 0 0 0 0 0 0
Wind_Speed_500mb
21 23 25 25 27 27 25 25 24 20 14 11 19 17 17 30 36 13 31 31 27 20 21 20 18 23 23 17 15 4 9 5 2 3 1 17 7 10 7 9 16 12 9 10 17
21 24 26 29 29 26 26 27 24 20 15 8 10 4 8 16 31 45 32 22 21 21 20 24 27 23 15 11 11 12 9 4 3 2 2 6 8 9 6 6 10 17 16 11 7
25 26 26 29 28 27 27 26 22 20 18 13 17 10 3 4 25 36 27 22 18 22 25 22 22 21 22 19 15 9 8 10 3 4 4 5 5 9 9 7 5 3 9 8 7
27 27 27 28 28 28 28 26 24 24 24 20 20 23 15 6 9 25 24 20 16 18 21 21 17 10 11 11 9 13 15 6 4 7 1 3 8 5 10 7 5 5 8 7 9
30 28 28 30 27 27 28 31 29 29 25 18 16 16 25 41 25 25 25 19 19 17 23 29 30 19 10 9 19 12 5 10 7 8 12 6 7 5 4 7 9 12 12 10 8
34 30 30 31 30 29 27 25 30 35 36 38 31 18 36 48 29 23 23 22 28 28 20 20 24 31 21 10 10 10 14 11 12 19 14 14 5 4 3 2 11 9 14 14 15
32 27 27 31 33 30 27 27 28 23 20 23 22 44 68 33 32 23 21 27 30 32 33 25 13 4 11 12 15 17 8 7 28 27 9 15 12 16 26 3 9 17 21 25 21
40 34 28 28 36 34 26 22 22 23 16 16 18 36 30 36 33 20 24 25 30 30 29 22 24 32 15 21 10 8 9 8 11 37 13 12 4 29 31 7 11 23 27 27 27
40 38 35 27 23 29 35 20 21 27 35 26 19 21 15 31 38 32 24 23 27 28 24 17 27 23 15 8 9 15 3 8 5 24 10 15 5 32 41 29 31 37 38 35 31
32 31 33 34 18 18 29 45 42 7 5 18 31 12 31 33 41 27 23 21 18 15 13 22 21 10 11 13 3 5 7 7 6 15 13 15 11 23 43 61 52 45 38 36 36
27 25 26 31 39 37 6 4 9 22 67 42 27 21 40 17 40 31 18 15 21 25 11 24 20 10 12 8 2 5 4 4 3 8 9 6 8 12 28 46 46 41 37 36 37
25 21 19 20 24 24 23 39 31 15 23 35 42 39 35 33 25 37 33 19 24 11 9 15 13 13 6 12 15 15 7 9 10 6 6 3 8 8 17 23 34 37 36 34 26
27 25 21 13 14 14 22 24 16 9 10 23 33 38 33 24 25 42 29 14 18 16 16 14 5 12 8 13 10 4 8 5 11 13 1 5 3 9 3 28 35 35 33 31 32
25 26 23 19 9 19 18 14 10 5 11 26 27 24 37 6 14 36 30 9 14 6 6 12 13 8 9 8 3 1 3 5 7 6 5 5 8 11 10 9 20 27 32 30 28
24 27 29 23 16 14 8 7 6 3 13 24 17 21 24 19 14 35 29 22 9 9 5 4 13 12 15 8 6 3 5 4 3 6 8 7 6 8 11 6 6 15 20 21 22
22 24 26 29 25 20 10 2 4 13 2 12 15 21 13 25 15 24 22 17 10 8 18 6 5 6 4 7 4 8 5 8 6 6 6 9 8 8 12 12 9 12 16 17 18
21 22 23 30 27 23 10 2 11 14 9 13 8 11 3 13 16 19 10 15 8 11 11 10 4 6 9 6 5 14 11 8 11 9 10 3 2 14 4 6 19 24 15 12 13
19 18 20 29 26 22 9 11 19 6 9 2 5 6 11 14 9 17 6 10 10 10 6 8 14 7 15 9 2 8 8 9 9 6 10 4 10 9 6 19 20 16 11 5 7
20 17 17 30 31 22 2 13 15 13 3 5 4 11 10 8 3 9 10 3 3 9 8 8 9 3 8 6 4 7 8 3 10 3 7 6 12 1 5 2 8 9 6 3 6
22 14 20 30 27 16 13 7 6 9 4 4 4 4 2 10 6 9 3 3 2 3 6 7 7 1 3 2 6 6 3 7 6 8 11 11 12 10 13 15 10 10 9 13 15
17 6 22 32 19 9 8 10 8 8 4 5 8 5 3 4 3 3 3 1 1 2 4 7 7 8 4 3 10 3 3 7 5 7 9 6 12 10 14 17 14 12 12 18 24
11 4 21 26 8 11 5 9 6 3 1 3 2 5 7 11 6 1 5 11 3 3 1 2 6 7 15 4 3 4 9 8 8 12 7 5 17 3 13 23 15 11 18 23 26
9 9 18 17 6 5 4 3 2 5 1 1 3 5 4 6 5 6 5 6 8 8 9 10 3 7 18 7 5 7 9 6 5 4 12 4 13 3 9 15 14 19 24 29 29
7 6 12 18 16 13 6 5 2 2 3 3 2 3 2 7 3 5 5 2 5 5 6 6 6 14 13 15 5 6 8 9 10 5 7 23 32 24 15 17 23 24 23 29 26
7 5 5 4 8 10 7 8 2 3 2 4 5 6 9 2 6 5 4 2 1 4 5 6 9 2 11 14 7 12 27 14 20 18 15 34 14 37 13 19 24 20 29 35 27
2 4 7 6 5 3 2 10 13 6 10 3 5 4 11 9 8 5 6 6 7 7 9 3 5 4 13 6 11 13 25 18 26 20 17 33 41 16 6 14 18 22 36 30 35
4 5 3 4 6 6 7 11 13 13 12 10 14 8 7 13 20 18 17 14 10 14 13 8 8 5 12 9 14 17 21 15 9 8 12 11 17 5 6 13 14 33 34 27 52
Wind_Direction_500mb
29 24 19 15 9 8 13 14 15 29 54 97 116 83 68 61 58 109 60 37 47 69 77 89 95 96 90 68 60 43 62 66 65 111 228 4 60 35 19 70 52 52 88 107 148
23 23 18 12 7 14 21 18 23 35 57 77 121 81 78 64 56 62 50 51 63 83 96 94 86 81 79 49 38 60 81 149 251 204 132 14 55 350 52 83 54 69 89 89 79
22 20 20 13 19 26 23 26 33 50 70 63 84 83 121 122 44 27 53 64 71 91 97 96 91 73 59 57 21 38 113 167 40 34 13 28 19 12 126 46 86 132 134 106 104
29 26 23 27 29 31 28 38 53 66 80 70 87 66 64 165 70 27 53 62 70 90 90 96 117 81 80 51 39 92 53 118 87 28 66 9 337 54 51 113 86 40 103 105 124
33 36 37 33 33 36 44 58 64 73 72 70 61 66 75 76 34 46 53 60 73 103 99 102 88 83 85 95 65 75 133 79 74 36 35 15 43 356 77 85 76 96 103 95 108
40 39 40 44 46 48 59 63 67 82 84 75 71 80 82 69 37 43 59 74 82 82 89 92 92 100 84 77 72 115 105 72 32 23 34 16 340 33 89 115 138 125 105 84 85
33 35 40 53 57 57 60 69 73 74 77 74 77 73 64 54 41 46 70 75 74 81 82 84 95 70 101 91 107 121 69 36 23 352 30 357 26 14 346 340 168 146 108 105 95
41 47 51 60 71 64 61 63 69 73 77 62 64 61 70 43 46 70 76 73 80 84 78 68 82 75 57 108 58 43 45 46 7 16 0 24 73 350 349 308 62 131 121 117 87
50 51 56 60 45 55 67 77 83 77 73 58 56 66 48 37 51 49 59 76 83 78 69 69 76 56 34 49 29 14 79 24 44 25 324 36 33 356 35 73 79 107 100 85 70
48 46 46 42 48 59 88 74 72 71 61 39 49 65 23 11 32 37 55 62 72 72 56 46 56 65 25 41 148 327 11 352 35 343 21 20 39 10 51 71 79 87 86 78 66
46 46 47 43 49 53 43 78 49 42 59 63 50 68 24 33 42 39 58 70 65 62 49 31 64 41 332 314 241 214 112 347 72 31 39 59 88 38 58 74 75 78 81 78 71
31 32 38 35 29 24 28 69 75 102 68 53 49 48 36 35 40 42 53 62 48 46 4 35 50 325 302 14 57 30 40 344 286 344 45 86 95 58 55 75 86 88 85 83 82
28 25 16 356 9 1 32 58 55 71 79 26 28 26 18 27 42 16 29 46 56 48 29 99 279 333 86 31 78 55 140 223 222 332 24 116 260 180 106 99 89 83 86 75 65
25 26 21 18 10 16 36 41 47 36 74 336 357 21 360 40 47 20 22 41 41 145 93 82 341 21 56 72 19 193 205 266 286 27 200 14 263 221 179 114 78 75 73 70 66
19 16 21 24 21 19 10 10 24 102 53 314 343 352 14 62 336 15 18 55 71 18 78 14 10 4 39 352 17 319 333 302 45 65 27 340 67 301 138 157 139 98 95 81 66
9 12 16 16 13 7 353 45 109 44 321 337 342 358 21 20 18 357 26 53 61 63 45 66 30 62 275 288 247 302 48 44 66 105 17 253 122 234 198 191 155 125 95 73 58
354 1 7 11 7 7 1 30 39 89 348 314 325 2 46 353 1 21 35 19 58 51 7 343 340 344 13 335 16 30 44 346 354 5 231 1 12 255 63 105 155 158 136 92 55
357 1 358 2 2 1 1 55 67 245 234 326 326 347 49 358 9 358 44 32 32 43 74 75 332 30 360 47 338 9 114 141 247 270 287 348 247 291 85 114 130 130 136 128 37
356 351 359 357 352 351 338 53 183 197 247 324 332 64 335 358 89 50 32 43 345 28 104 30 290 57 44 29 61 331 38 119 95 77 38 280 294 243 96 26 146 160 190 285 320
348 346 0 353 351 358 67 160 169 201 183 173 108 115 199 303 15 49 338 221 162 97 145 171 338 231 303 81 48 128 162 27 12 338 307 286 278 248 234 226 252 215 244 269 286
350 7 354 350 349 25 106 206 222 200 205 154 157 129 185 245 297 299 285 254 9 59 64 123 92 295 52 195 187 12 5 48 123 149 206 287 259 208 220 193 203 224 271 294 291
355 29 356 355 23 48 91 180 124 190 235 298 136 124 173 165 185 198 238 197 169 138 32 16 131 269 237 246 285 240 210 170 128 265 232 183 270 275 182 176 190 249 292 307 304
16 360 9 12 86 354 358 50 146 139 199 33 360 352 65 160 30 216 223 181 179 170 169 168 291 347 338 352 4 217 213 148 105 65 218 163 270 325 238 226 217 279 298 314 311
13 29 29 50 71 114 126 324 42 188 147 147 151 122 120 16 10 255 269 226 200 181 160 168 190 180 201 219 142 251 212 195 149 142 216 233 277 284 242 238 240 285 303 317 310
31 95 80 309 12 101 116 132 103 307 203 206 1 216 158 339 322 249 244 215 213 195 162 154 211 272 256 238 217 240 256 203 203 224 214 274 235 272 238 234 251 294 319 320 313
5 153 122 104 104 134 128 196 174 244 160 225 169 179 176 183 210 290 190 218 205 197 180 166 257 92 287 299 240 273 268 224 236 244 255 270 274 286 240 243 269 297 322 316 323
225 179 206 160 143 105 218 176 204 173 200 194 189 156 210 240 257 256 237 222 199 179 184 150 126 74 262 353 352 302 240 188 191 212 170 209 243 167 283 262 298 317 315 316 329
Wind_Speed_850mb
21 23 25 25 27 27 25 25 24 20 14 11 19 17 17 30 36 13 31 31 27 20 21 20 18 23 23 17 15 4 9 5 2 3 1 17 7 10 7 9 16 12 9 10 17
21 24 26 29 29 26 26 27 24 20 15 8 10 4 8 16 31 45 32 22 21 21 20 24 27 23 15 11 11 12 9 4 3 2 2 6 8 9 6 6 10 17 16 11 7
25 26 26 29 28 27 27 26 22 20 18 13 17 10 3 4 25 36 27 22 18 22 25 22 22 21 22 19 15 9 8 10 3 4 4 5 5 9 9 7 5 3 9 8 7
27 27 27 28 28 28 28 26 24 24 24 20 20 23 15 6 9 25 24 20 16 18 21 21 17 10 11 11 9 13 15 6 4 7 1 3 8 5 10 7 5 5 8 7 9
30 28 28 30 27 27 28 31 29 29 25 18 16 16 25 41 25 25 25 19 19 17 23 29 30 19 10 9 19 12 5 10 7 8 12 6 7 5 4 7 9 12 12 10 8
34 30 30 31 30 29 27 25 30 35 36 38 31 18 36 48 29 23 23 22 28 28 20 20 24 31 21 10 10 10 14 11 12 19 14 14 5 4 3 2 11 9 14 14 15
32 27 27 31 33 30 27 27 28 23 20 23 22 44 68 33 32 23 21 27 30 32 33 25 13 4 11 12 15 17 8 7 28 27 9 15 12 16 26 3 9 17 21 25 21
40 34 28 28 36 34 26 22 22 23 16 16 18 36 30 36 33 20 24 25 30 30 29 22 24 32 15 21 10 8 9 8 11 37 13 12 4 29 31 7 11 23 27 27 27
40 38 35 27 23 29 35 20 21 27 35 26 19 21 15 31 38 32 24 23 27 28 24 17 27 23 15 8 9 15 3 8 5 24 10 15 5 32 41 29 31 37 38 35 31
32 31 33 34 18 18 29 45 42 7 5 18 31 12 31 33 41 27 23 21 18 15 13 22 21 10 11 13 3 5 7 7 6 15 13 15 11 23 43 61 52 45 38 36 36
27 25 26 31 39 37 6 4 9 22 67 42 27 21 40 17 40 31 18 15 21 25 11 24 20 10 12 8 2 5 4 4 3 8 9 6 8 12 28 46 46 41 37 36 37
25 21 19 20 24 24 23 39 31 15 23 35 42 39 35 33 25 37 33 19 24 11 9 15 13 13 6 12 15 15 7 9 10 6 6 3 8 8 17 23 34 37 36 34 26
27 25 21 13 14 14 22 24 16 9 10 23 33 38 33 24 25 42 29 14 18 16 16 14 5 12 8 13 10 4 8 5 11 13 1 5 3 9 3 28 35 35 33 31 32
25 26 23 19 9 19 18 14 10 5 11 26 27 24 37 6 14 36 30 9 14 6 6 12 13 8 9 8 3 1 3 5 7 6 5 5 8 11 10 9 20 27 32 30 28
24 27 29 23 16 14 8 7 6 3 13 24 17 21 24 19 14 35 29 22 9 9 5 4 13 12 15 8 6 3 5 4 3 6 8 7 6 8 11 6 6 15 20 21 22
22 24 26 29 25 20 10 2 4 13 2 12 15 21 13 25 15 24 22 17 10 8 18 6 5 6 4 7 4 8 5 8 6 6 6 9 8 8 12 12 9 12 16 17 18
21 22 23 30 27 23 10 2 11 14 9 13 8 11 3 13 16 19 10 15 8 11 11 10 4 6 9 6 5 14 11 8 11 9 10 3 2 14 4 6 19 24 15 12 13
19 18 20 29 26 22 9 11 19 6 9 2 5 6 11 14 9 17 6 10 10 10 6 8 14 7 15 9 2 8 8 9 9 6 10 4 10 9 6 19 20 16 11 5 7
20 17 17 30 31 22 2 13 15 13 3 5 4 11 10 8 3 9 10 3 3 9 8 8 9 3 8 6 4 7 8 3 10 3 7 6 12 1 5 2 8 9 6 3 6
22 14 20 30 27 16 13 7 6 9 4 4 4 4 2 10 6 9 3 3 2 3 6 7 7 1 3 2 6 6 3 7 6 8 11 11 12 10 13 15 10 10 9 13 15
17 6 22 32 19 9 8 10 8 8 4 5 8 5 3 4 3 3 3 1 1 2 4 7 7 8 4 3 10 3 3 7 5 7 9 6 12 10 14 17 14 12 12 18 24
11 4 21 26 8 11 5 9 6 3 1 3 2 5 7 11 6 1 5 11 3 3 1 2 6 7 15 4 3 4 9 8 8 12 7 5 17 3 13 23 15 11 18 23 26
9 9 18 17 6 5 4 3 2 5 1 1 3 5 4 6 5 6 5 6 8 8 9 10 3 7 18 7 5 7 9 6 5 4 12 4 13 3 9 15 14 19 24 29 29
7 6 12 18 16 13 6 5 2 2 3 3 2 3 2 7 3 5 5 2 5 5 6 6 6 14 13 15 5 6 8 9 10 5 7 23 32 24 15 17 23 24 23 29 26
7 5 5 4 8 10 7 8 2 3 2 4 5 6 9 2 6 5 4 2 1 4 5 6 9 2 11 14 7 12 27 14 20 18 15 34 14 37 13 19 24 20 29 35 27
2 4 7 6 5 3 2 10 13 6 10 3 5 4 11 9 8 5 6 6 7 7 9 3 5 4 13 6 11 13 25 18 26 20 17 33 41 16 6 14 18 22 36 30 35
4 5 3 4 6 6 7 11 13 13 12 10 14 8 7 13 20 18 17 14 10 14 13 8 8 5 12 9 14 17 21 15 9 8 12 11 17 5 6 13 14 33 34 27 52
Wind_Direction_850mb
29 24 19 15 9 8 13 14 15 29 54 97 116 83 68 61 58 109 60 37 47 69 77 89 95 96 90 68 60 43 62 66 65 111 228 4 60 35 19 70 52 52 88 107 148
23 23 18 12 7 14 21 18 23 35 57 77 121 81 78 64 56 62 50 51 63 83 96 94 86 81 79 49 38 60 81 149 251 204 132 14 55 350 52 83 54 69 89 89 79
22 20 20 13 19 26 23 26 33 50 70 63 84 83 121 122 44 27 53 64 71 91 97 96 91 73 59 57 21 38 113 167 40 34 13 28 19 12 126 46 86 132 134 106 104
29 26 23 27 29 31 28 38 53 66 80 70 87 66 64 165 70 27 53 62 70 90 90 96 117 81 80 51 39 92 53 118 87 28 66 9 337 54 51 113 86 40 103 105 124
33 36 37 33 33 36 44 58 64 73 72 70 61 66 75 76 34 46 53 60 73 103 99 102 88 83 85 95 65 75 133 79 74 36 35 15 43 356 77 85 76 96 103 95 108
40 39 40 44 46 48 59 63 67 82 84 75 71 80 82 69 37 43 59 74 82 82 89 92 92 100 84 77 72 115 105 72 32 23 34 16 340 33 89 115 138 125 105 84 85
33 35 40 53 57 57 60 69 73 74 77 74 77 73 64 54 41 46 70 75 74 81 82 84 95 70 101 91 107 121 69 36 23 352 30 357 26 14 346 340 168 146 108 105 95
41 47 51 60 71 64 61 63 69 73 77 62 64 61 70 43 46 70 76 73 80 84 78 68 82 75 57 108 58 43 45 46 7 16 0 24 73 350 349 308 62 131 121 117 87
50 51 56 60 45 55 67 77 83 77 73 58 56 66 48 37 51 49 59 76 83 78 69 69 76 56 34 49 29 14 79 24 44 25 324 36 33 356 35 73 79 107 100 85 70
48 46 46 42 48 59 88 74 72 71 61 39 49 65 23 11 32 37 55 62 72 72 56 46 56 65 25 41 148 327 11 352 35 343 21 20 39 10 51 71 79 87 86 78 66
46 46 47 43 49 53 43 78 49 42 59 63 50 68 24 33 42 39 58 70 65 62 49 31 64 41 332 314 241 214 112 347 72 31 39 59 88 38 58 74 75 78 81 78 71
31 32 38 35 29 24 28 69 75 102 68 53 49 48 36 35 40 42 53 62 48 46 4 35 50 325 302 14 57 30 40 344 286 344 45 86 95 58 55 75 86 88 85 83 82
28 25 16 356 9 1 32 58 55 71 79 26 28 26 18 27 42 16 29 46 56 48 29 99 279 333 86 31 78 55 140 223 222 332 24 116 260 180 106 99 89 83 86 75 65
25 26 21 18 10 16 36 41 47 36 74 336 357 21 360 40 47 20 22 41 41 145 93 82 341 21 56 72 19 193 205 266 286 27 200 14 263 221 179 114 78 75 73 70 66
19 16 21 24 21 19 10 10 24 102 53 314 343 352 14 62 336 15 18 55 71 18 78 14 10 4 39 352 17 319 333 302 45 65 27 340 67 301 138 157 139 98 95 81 66
9 12 16 16 13 7 353 45 109 44 321 337 342 358 21 20 18 357 26 53 61 63 45 66 30 62 275 288 247 302 48 44 66 105 17 253 122 234 198 191 155 125 95 73 58
354 1 7 11 7 7 1 30 39 89 348 314 325 2 46 353 1 21 35 19 58 51 7 343 340 344 13 335 16 30 44 346 354 5 231 1 12 255 63 105 155 158 136 92 55
357 1 358 2 2 1 1 55 67 245 234 326 326 347 49 358 9 358 44 32 32 43 74 75 332 30 360 47 338 9 114 141 247 270 287 348 247 291 85 114 130 130 136 128 37
356 351 359 357 352 351 338 53 183 197 247 324 332 64 335 358 89 50 32 43 345 28 104 30 290 57 44 29 61 331 38 119 95 77 38 280 294 243 96 26 146 160 190 285 320
348 346 0 353 351 358 67 160 169 201 183 173 108 115 199 303 15 49 338 221 162 97 145 171 338 231 303 81 48 128 162 27 12 338 307 286 278 248 234 226 252 215 244 269 286
350 7 354 350 349 25 106 206 222 200 205 154 157 129 185 245 297 299 285 254 9 59 64 123 92 295 52 195 187 12 5 48 123 149 206 287 259 208 220 193 203 224 271 294 291
355 29 356 355 23 48 91 180 124 190 235 298 136 124 173 165 185 198 238 197 169 138 32 16 131 269 237 246 285 240 210 170 128 265 232 183 270 275 182 176 190 249 292 307 304
16 360 9 12 86 354 358 50 146 139 199 33 360 352 65 160 30 216 223 181 179 170 169 168 291 347 338 352 4 217 213 148 105 65 218 163 270 325 238 226 217 279 298 314 311
13 29 29 50 71 114 126 324 42 188 147 147 151 122 120 16 10 255 269 226 200 181 160 168 190 180 201 219 142 251 212 195 149 142 216 233 277 284 242 238 240 285 303 317 310
31 95 80 309 12 101 116 132 103 307 203 206 1 216 158 339 322 249 244 215 213 195 162 154 211 272 256 238 217 240 256 203 203 224 214 274 235 272 238 234 251 294 319 320 313
5 153 122 104 104 134 128 196 174 244 160 225 169 179 176 183 210 290 190 218 205 197 180 166 257 92 287 299 240 273 268 224 236 244 255 270 274 286 240 243 269 297 322 316 323
225 179 206 160 143 105 218 176 204 173 200 194 189 156 210 240 257 256 237 222 199 179 184 150 126 74 262 353 352 302 240 188 191 212 170 209 243 167 283 262 298 317 315 316 329